Showing default

GRAVITAS, 68495

Orbit data source: Space-Track

GRAVITAS, 68495 is an American payload satellite in SSO that was launched on Mon, 30 Mar 2026 UTC via an FALCON 9 launch vehicle from the Air Force Western Test Range (AFWTR). Payload-class satellites include a variety of spacecraft equipped with specific instruments for various scientific and technological missions. These include communications satellites like Starlink; space stations such as the ISS; scientific satellites like the Hubble; Earth observation satellites from companies like Planet Labs, Umbra, and HawkEye 360; GPS; miniature CubeSats for education and research; and military/defense satellites.

Loading next visibility...
Identifier
68495, 2026-067CH
Orbit
SSO
Country
Flag of USUS
Related business
Manufacturer
K2SP
Mission
Operational spacecraft
Bus & Motor
GRAVITAS, Unknown motor
Mass
2,000 kg wet, 1,800 kg dry
Launch date (UTC)
2026-03-30 (1 month ago)
Launch vehicle
FALCON 9
Launch site
Air Force Western Test Range (AFWTR)
Object type
Payload
Rocket body
Debris
Shape & HBR
Unknown shape, 14.5 m
Radar Cross Section
RCS unknown

Expand to show TLE details & history
Last TLE update: 11 hours ago

TLE from 11 hours ago
0 GRAVITAS
1 68495U 26067CH  26127.24249966  .00000400  00000-0  63686-4 0  9990
2 68495  97.7587  85.7339 0004096 126.1499 234.0091 14.76953574  5592
Epoch: 2026-05-07T05:49Z
TLE epoch observation values (Epoch: 2026-05-07T05:49:11.970Z)
Latitude
-0.00005°
Longitude
133.34258°
Altitude
643.668 km
Speed
7.535 km/s
True Right ascension
05h 42m 56s
True Declination
0° 00' 00"
Sunlit
Object was in daylight at epoch
Visualization orbit readout
Latitude
Unknown
Longitude
Unknown
Altitude
Unknown
Speed
Unknown
Apparent Right ascension
Unknown
Apparent Declination
Unknown
Sunlit
N/A
Visualization observer readout
Local Sidereal Time
01:02:53
Azimuth
Unknown
Elevation
Unknown
Doppler factor
Unknown
Orbital elements
Apogee altitude
638.868 km
Perigee altitude
633.122 km
Semi-major axis
7,014.132 km
Eccentricity
0.00041
Inclination
97.7587°
RAAN
85.7339°
Arg. of periapsis
126.1499°
True anomaly
233.97113°
Mean anomaly
234.0091°
Eccentric anomaly
233.99012°
Mean motion
3.69473 °/min
Orbital period
97.44 mins
BSTAR
0.000063686
Loading maneuver chart data...
Computing Atmospheric mass density...
Loading historical data...
Loading historical data...
Loading historical data...
Loading historical data...
Loading historical data...
Loading historical data...
Loading historical data...

Documentation

Showing up to 5 results
|